Location: The C. Gantt Observatory
(33.6981°N, 81.6836°W)
Time: 10:41:39
(UTC-04:00)

Iridium 30 - Visible Passes

Search period start: 21 April 2015 00:00
Search period end: 01 May 2015 00:00
Orbit: 776 x 779 km, 86.4° (Epoch: 19 April)

Date Brightness Start Highest point End Pass type
(mag) Time Alt. Az. Time Alt. Az. Time Alt. Az.
21 Apr 7.5 03:46:33 20° ESE 03:47:52 23° E 03:51:56 10° NNE visible
21 Apr 6.3 05:27:03 28° WSW 05:28:27 32° W 05:33:04 10° NNW visible
22 Apr 8.2 03:13:25 10° E 03:14:34 11° E 03:16:18 10° ENE visible
22 Apr 5.5 04:53:54 54° SW 04:54:48 64° W 04:59:59 10° N visible
23 Apr 5.7 04:20:44 61° SE 04:21:18 66° E 04:26:28 10° N visible
23 Apr 7.4 06:01:13 10° W 06:02:39 11° WNW 06:03:51 10° WNW visible
24 Apr 6.9 03:47:33 33° E 03:47:53 33° E 03:52:33 10° NNE visible
24 Apr 6.7 05:28:02 22° W 05:28:42 22° W 05:32:37 10° NNW visible
25 Apr 7.8 03:14:20 17° E 03:14:32 17° E 03:17:59 10° NE visible
25 Apr 5.9 04:54:49 42° W 04:54:57 42° W 04:59:53 10° NNW visible
26 Apr 5.4 04:21:36 80° NW 04:21:36 80° NW 04:26:37 10° N visible
27 Apr 6.3 03:48:21 49° ENE 03:48:21 49° ENE 03:52:57 10° NNE visible
27 Apr 7.2 05:28:49 15° WNW 05:29:02 15° WNW 05:31:45 10° NW visible
28 Apr 7.3 03:15:05 25° ENE 03:15:05 25° ENE 03:18:49 10° NNE visible
28 Apr 6.6 04:55:34 28° WNW 04:55:34 28° WNW 04:59:35 10° NNW visible
29 Apr 8.1 02:41:47 13° ENE 02:41:47 13° ENE 02:43:44 10° NE visible
29 Apr 5.9 04:22:16 50° NW 04:22:16 50° NW 04:26:36 10° N visible
30 Apr 6.0 03:48:59 57° NNE 03:48:59 57° NNE 03:53:11 10° N visible
